Location: Unspecified
(0.0000°N, 0.0000°E)
Time: 05:54:43
(UTC+00:00)

Transit 4A - Pass Details

Date: 05 October 2020
Orbit: 862 x 982 km, 66.8° (Epoch: 28 October)

Event Time Altitude Azimuth Distance (km) Brightness Sun altitude
Rises 18:33:28 0° 194° (SSW) 3,465 11.2 -11.3°
Reaches altitude 10° 18:35:56 10° 192° (SSW) 2,537 10.4 -11.9°
Maximum altitude 18:41:46 68° 109° (ESE) 965 7.8 -13.3°
Drops below altitude 10° 18:47:46 10° 27° (NNE) 2,605 9.9 -14.8°
Sets 18:50:19 0° 25° (NNE) 3,564 10.7 -15.5°
